Flag for Germany Weather past 2 weeks in Dresden, Saxony, Germany

Now
72 °F

Broken clouds.


Feels Like: 74 °F
Forecast: 62 / 74 °F
Wind: 6 mph from West

Location: Dresden-Klotzsche

Current Time: Jul 30, 2014 at 2:16:56 PM

Latest Report: Jul 30, 2014 at 1:50 PM


Visibility: N/A

Pressure: 29.77 "Hg

Humidity: 73%

Dew point: 63 °F

Location of DresdenLocation

Historic Weather in Dresden — Graph

°F

Dresden temperature yesterday

Maximum temperature yesterday: 79 °F (at 12:20 PM)
Minimum temperature yesterday: 63 °F (at 3:20 AM)
Average temperature yesterday: 70 °F

Past Weeks' High & Low Weather Summary

 TemperatureHumidityPressure
High90 °F (Jul 20, 2:20 PM)100% (Jul 24, 9:50 PM)30.18 "Hg (Jul 24, 9:50 PM)
Low57 °F (Jul 24, 5:20 AM)24% (Jul 20, 3:50 PM)29.71 "Hg (Jul 29, 5:20 PM)
Average72 °F67%29.96 "Hg
* Reported Jul 15 1:20 PM — Jul 30 1:20 PM, Dresden, Weather by CustomWeather, © 2014

Note: Actual official high and low records may vary slightly from our data, if they occured in-between our weather recording intervals... More about our weather records

Advertising

Dresden weather history for previous 24 hours

 ConditionsComfort  
Time TempWeatherWind HumidityBarometerVisibility
1:20 PM
Jul 30
72 °FBroken clouds.2 mph78%29.77 "HgN/A
12:50 PM72 °FBroken clouds.1 mph78%29.77 "HgN/A
12:20 PM72 °FPartly sunny.3 mph78%29.77 "Hg6 mi
11:50 AM70 °FPartly sunny.6 mph83%29.77 "Hg6 mi
11:20 AM70 °FPartly sunny.5 mph83%29.77 "Hg6 mi
10:50 AM70 °FPartly sunny.7 mph83%29.77 "Hg5 mi
10:20 AM68 °FPartly sunny.7 mph88%29.74 "Hg4 mi
9:50 AM68 °FPartly sunny.3 mph88%29.74 "Hg4 mi
9:20 AM68 °FFog.5 mph88%29.74 "Hg3 mi
8:50 AM66 °FFog.6 mph94%29.74 "Hg3 mi
8:20 AM66 °FFog.5 mph94%29.74 "Hg2 mi
7:50 AM66 °FFog.5 mph94%29.74 "Hg2 mi
7:20 AM66 °FFog.6 mph94%29.74 "Hg2 mi
6:50 AM64 °FFog.3 mph94%29.74 "Hg2 mi
6:20 AM64 °FFog.3 mph94%29.74 "Hg2 mi
5:50 AM64 °FLight rain. Fog.3 mph94%29.74 "Hg1 mi
5:20 AM64 °FFog.6 mph94%29.74 "Hg1 mi
4:50 AM64 °FFog.5 mph94%29.74 "Hg0 mi
4:20 AM64 °FFog.2 mph94%29.71 "Hg2 mi
3:50 AM64 °FFog.2 mph94%29.71 "Hg2 mi
3:20 AM66 °FFog.1 mph94%29.71 "Hg3 mi
2:50 AM64 °FFog.2 mph94%29.71 "Hg4 mi
2:20 AM64 °FFog.2 mph94%29.71 "Hg5 mi
1:50 AM64 °FClear.3 mph94%29.71 "Hg10 mi
1:20 AM66 °FClear.2 mph88%29.71 "Hg10 mi
12:50 AM66 °FClear.2 mph94%29.71 "Hg10 mi
12:20 AM66 °FClear.2 mph94%29.71 "Hg10 mi
11:50 PM
Jul 29
68 °FPassing clouds.2 mph88%29.71 "HgN/A
11:20 PM68 °FLight rain. Partly cloudy.1 mph94%29.74 "HgN/A
10:50 PM68 °FLight rain. Passing clouds.5 mph94%29.74 "HgN/A
10:20 PM68 °FSprinkles. Passing clouds.5 mph88%29.74 "HgN/A
9:50 PM68 °FBroken clouds.5 mph88%29.74 "HgN/A
9:20 PM70 °FBroken clouds.5 mph83%29.74 "HgN/A
8:50 PM70 °FBroken clouds.1 mph83%29.74 "HgN/A
8:20 PM70 °FPartly sunny.2 mph88%29.74 "HgN/A
7:50 PM72 °FSprinkles. Broken clouds.8 mph78%29.74 "HgN/A
7:20 PM75 °FBroken clouds.2 mph74%29.74 "HgN/A
6:50 PM75 °FScattered clouds.2 mph74%29.71 "HgN/A
6:20 PM73 °FPassing clouds.No wind78%29.71 "HgN/A
5:50 PM72 °FScattered clouds.1 mph83%29.74 "HgN/A
5:20 PM72 °FPartly sunny.1 mph83%29.71 "HgN/A
4:50 PM72 °FLight rain. Broken clouds.7 mph83%29.74 "HgN/A
4:20 PM72 °FLight rain. Broken clouds.6 mph83%29.74 "HgN/A
3:50 PM72 °FSprinkles. Partly sunny.3 mph83%29.74 "HgN/A
3:20 PM72 °FThundershowers. Partly sunny.1 mph83%29.74 "HgN/A
2:50 PM72 °FSprinkles. Partly sunny.7 mph88%29.74 "Hg5 mi
2:20 PM79 °FSprinkles. Partly sunny.1 mph58%29.77 "HgN/A
Weather by CustomWeather, © 2014

See weather overviewHow to use our weather pages